map of CAY home
Great Circle Mapper logo
CAY - Airport
Location
City:  Cayenne, French Guiana
Name:Rochambeau
ICAO:SOCA
IATA:CAY

Details
Type:Airport (Aerodrome, Airfield)
Latitude:449'11"N (4.819722)
Longitude:5221'43"W (-52.361943)
Elevation:26 ft (8 m)
Variation:18.36W (WMM2015 magnetic declination)
-0.02 annual change
Runways:1
Longest:10499 × 148 ft (3200 × 45 m), paved

Time
Time Zone:UTC-3
Local Time:

Weather
METAR:SOCA 291400Z AUTO 24004KT 9999 FEW012 BKN050 BKN062 29/24 Q1015 TEMPO 1000 TSRA SCT013CB BECMG 10010KT
TAF:SOCA 290500Z 2906/3006 VRB02KT 9999 SCT025 BKN050
TEMPO 2906/2911 3000 SHRA SCT012TCU
FM291200 10010KT 9999 SCT020 PROB40
TEMPO 2916/2922 3000 SHRA SCT014TCU PROB30
TEMPO 2916/2920 1000 TSRA SCT013CB

Related Locations
Nearby:
Farthest:AMQ: 12350 mi / 19875 km
Ambon [Pattimura], ML, ID

Find:

   beyond  
but within

Other Information
Maps:
NOTAMs:
Links:
Sources:

  
flag of French Guiana   

Sectional Chart

Flight Planning
at skyvector.com

Satellite Image

Google Maps Satellite view

 

Copyright © 2004-2016 Karl L. Swartz. All rights reserved.
The Great Circle Mapper name and logo are trademarks of the Great Circle Mapper.
All other trademarks mentioned herein belong to their respective owners.
Please see credits for attibutions and further copyright information.

  Follow gcmap on Facebook Follow gcmap on Twitter Follow gcmap on Google+ GCmap on LinkedIn

hCard Microformat

Geo Microformat